850  
ASUS43 KFSD 172210  
RWRFSD  
 
WEATHER ROUNDUP FOR SE SOUTH DAKOTA/SW MINNESOTA/NW IOWA  
NATIONAL WEATHER SERVICE SIOUX FALLS SD  
500 PM CDT SUN JUN 17 2018  
 
NOTE: "FAIR" INDICATES FEW OR NO CLOUDS BELOW 12,000 FEET WITH NO  
SIGNIFICANT WEATHER AND OR S TO VISIBILITY
.  
 
 
SDZ038>040-050-052>070-172300-  
SOUTHEAST SOUTH DAKOTA  
 
CITY SKY/WX TMP DP RH WIND PRES REMARKS
 
BROOKINGS CLOUDY 73 67 81 N14 29.85R  
CHAMBERLAIN RAIN 66 66 100 N8 29.91S  
HURON CLOUDY 70 62 76 N14 29.87F  
MADISON CLOUDY 79 77 94 N8 29.84S  
MITCHELL CLOUDY 73 66 78 NW13 29.85F  
SIOUX FALLS PTSUNNY 85 70 60 S15G22 29.82S  
WINNER LGT RAIN 64 60 87 N13 29.93R FOG  
YANKTON CLOUDY 84 74 71 S7 29.81F  

 
 
MNZ071-072-080-081-089-090-097-098-172300-  
SOUTHWEST MINNESOTA  
 
CITY SKY/WX TMP DP RH WIND PRES REMARKS
 
FAIRMONT CLOUDY 90 71 53 SW20G25 29.83F HX 96  
JACKSON CLOUDY 88 68 51 SW21 29.86S  
LUVERNE PTSUNNY 86 64 48 SW18G25 29.84F  
MARSHALL HVY RAIN 72 68 87 N9 29.86R  
MONTEVIDEO CLOUDY 73 66 78 N8 29.86R  
PIPESTONE PTSUNNY 79 73 83 SE6 29.84F  
REDWOOD FALLS CLOUDY 79 74 84 NW10 29.81R  
TRACY RAIN 75 73 94 NW9 29.86R  
WINDOM SUNNY 88 61 40 SW18G29 29.84R  
WORTHINGTON CLOUDY 85 70 60 SW16G22 29.86R  

 
 
IAZ001>003-012>014-020>022-031-032-NEZ013-014-SDZ071-172300-  
NORTHWEST IOWA  
 
CITY SKY/WX TMP DP RH WIND PRES REMARKS
 
CHEROKEE CLOUDY 83 71 67 S9 29.85S  
DENISON MOSUNNY 86 72 62 SW13G22 29.92R  
ESTHERVILLE CLOUDY 88 70 55 SW16G28 29.84F  
ORANGE CITY CLOUDY 88 66 48 S16G22 29.84F  
SHELDON MOSUNNY 86 66 51 SW17G26 29.82F  
SIOUX CITY MOSUNNY 85 71 63 S13 29.83F  
SPENCER CLOUDY 86 69 56 S13 29.84F  
STORM LAKE CLOUDY 84 68 58 S13 29.87S  

 
 
ABBREVIATIONS USED IN REMARKS  
TC - TEMPERATURE IN CELSIUS  
WCI - WIND CHILL INDEX  
HX - HEAT INDEX  
VSB - VISIBILITY  
 
 
 
CLICK HERE TO GO TO PREVIOUS BULLETINS.

The Nexlab SD Page
The Nexlab IA Page
The Nexlab MN Page
The Nexlab NE Page Main Text Page